Location: Ladrillo (historical)
(32.8195°N, 117.2231°W)
Time: 20:23:40
(UTC+00:00)

Tiangong - Visible Passes

Search period start: 26 September 2021 00:00
Search period end: 06 October 2021 00:00
Orbit: 382 x 385 km, 41.5° (Epoch: 26 September)

Date Brightness Start Highest point End Pass type
(mag) Time Alt. Az. Time Alt. Az. Time Alt. Az.
26 Sep 3.4 11:41:00 24° E 11:41:00 24° E 11:42:32 10° ENE visible
26 Sep 2.3 13:13:33 10° W 13:16:24 30° NNW 13:19:15 10° NE visible
27 Sep 1.5 12:16:21 48° NNW 12:16:23 48° NNW 12:19:28 10° NE visible
28 Sep 4.6 11:19:24 11° ENE 11:19:24 11° ENE 11:19:35 10° ENE visible
28 Sep 2.8 12:51:37 14° WNW 12:53:31 22° NNW 12:56:05 10° NE visible
29 Sep 3.2 11:54:37 23° NNE 11:54:37 23° NNE 11:56:16 10° NE visible
30 Sep 3.1 12:29:47 16° NNW 12:30:38 18° N 12:32:55 10° NE visible
01 Oct 4.3 11:32:43 12° NE 11:32:43 12° NE 11:33:01 10° NE visible
01 Oct 3.4 13:05:47 10° NW 13:07:59 17° N 13:10:09 10° NE visible
02 Oct 3.4 12:07:51 17° N 12:07:51 17° N 12:09:54 10° NE visible
03 Oct 3.2 12:42:59 12° NW 12:45:04 19° N 12:47:28 10° ENE visible
04 Oct 3.9 11:45:58 15° NNE 11:45:58 15° NNE 11:47:02 10° NE visible
04 Oct 2.3 13:19:14 10° NW 13:22:12 36° NNE 13:25:10 10° E visible
05 Oct 2.8 12:21:11 22° NNW 12:22:05 25° NNE 12:24:46 10° ENE visible
